When you browse on this site, cookies collect data to enhance your experience and personalize the content and advertising you see.
Visit our Privacy Policy to learn more. By continuing to use the site, you agree to this use of cookies and data.
  • In Spain
  • List of Countries
  • For 7 days
  • Water Temperature
  • Weather Map
  • Weather Widgets
  • user-avatar
    Login

    Hourly Weather Prutz

    Today, 3 June, Wednesday

    Time Temperature Precipitation Wind Pressure Humidity
    00:00 +6°C° 0 mm 1 mps 630 mmHg 88%
    01:00 +6°C° 0 mm 1 mps 629 mmHg 88%
    02:00 +6°C° 0 mm 1 mps 629 mmHg 86%
    03:00 +6°C° 0 mm 1 mps 628 mmHg 85%
    04:00 +6°C° 0 mm 1 mps 628 mmHg 84%
    05:00 +8°C° 0 mm 1 mps 629 mmHg 78%
    06:00 +10°C° 0 mm 1 mps 629 mmHg 73%
    07:00 +11°C° 0 mm 0 mps 630 mmHg 67%
    08:00 +13°C° 0 mm 0 mps 630 mmHg 58%
    09:00 +14°C° 0 mm 0 mps 630 mmHg 48%
    10:00 +16°C° 0 mm 0 mps 631 mmHg 39%
    11:00 +19°C° 0 mm 1 mps 630 mmHg 36%
    12:00 +19°C° 0 mm 1 mps 630 mmHg 34%
    13:00 +20°C° 0 mm 1 mps 630 mmHg 31%
    14:00 +20°C° 0.2 mm 1 mps 629 mmHg 36%
    15:00 +18°C° 0.2 mm 2 mps 629 mmHg 40%
    16:00 +18°C° 0.2 mm 2 mps 628 mmHg 44%
    17:00 +16°C° 0.6 mm 2 mps 628 mmHg 57%
    18:00 +14°C° 0.6 mm 1 mps 627 mmHg 69%
    19:00 +13°C° 0.6 mm 1 mps 626 mmHg 82%
    20:00 +12°C° 0.4 mm 1 mps 626 mmHg 85%
    21:00 +11°C° 0.4 mm 1 mps 626 mmHg 88%
    22:00 +10°C° 0.4 mm 1 mps 626 mmHg 91%
    23:00 +9°C° 0.1 mm 1 mps 625 mmHg 91%

    Tomorrow, 4 June, Thursday

    Time Temperature Precipitation Wind Pressure Humidity
    00:00 +8°C° 0.1 mm 2 mps 625 mmHg 91%
    01:00 +7°C° 0.1 mm 2 mps 624 mmHg 91%
    02:00 +7°C° 0 mm 2 mps 624 mmHg 92%
    03:00 +7°C° 0 mm 2 mps 624 mmHg 92%
    04:00 +7°C° 0 mm 2 mps 623 mmHg 92%
    05:00 +8°C° 0.2 mm 2 mps 623 mmHg 91%
    06:00 +10°C° 0.2 mm 1 mps 623 mmHg 90%
    07:00 +10°C° 0.2 mm 1 mps 623 mmHg 89%
    08:00 +10°C° 0.6 mm 1 mps 623 mmHg 89%
    09:00 +11°C° 0.6 mm 1 mps 623 mmHg 89%
    10:00 +11°C° 0.6 mm 1 mps 623 mmHg 89%
    11:00 +11°C° 0.4 mm 1 mps 623 mmHg 88%
    12:00 +11°C° 0.4 mm 1 mps 623 mmHg 88%
    13:00 +11°C° 0.4 mm 1 mps 623 mmHg 87%
    14:00 +11°C° 0.8 mm 1 mps 622 mmHg 89%
    15:00 +10°C° 0.8 mm 2 mps 622 mmHg 92%
    16:00 +9°C° 0.8 mm 2 mps 621 mmHg 94%
    17:00 +9°C° 1.5 mm 2 mps 621 mmHg 95%
    18:00 +8°C° 1.5 mm 2 mps 621 mmHg 96%
    19:00 +8°C° 1.5 mm 2 mps 620 mmHg 97%
    20:00 +7°C° 2.9 mm 2 mps 620 mmHg 97%
    21:00 +7°C° 2.9 mm 1 mps 620 mmHg 98%
    22:00 +7°C° 2.9 mm 1 mps 620 mmHg 98%
    23:00 +7°C° 2.9 mm 1 mps 620 mmHg 98%

    Day after tomorrow, 5 June, Friday

    Time Temperature Precipitation Wind Pressure Humidity
    00:00 +6°C° 2.9 mm 1 mps 619 mmHg 98%
    01:00 +6°C° 2.9 mm 1 mps 619 mmHg 98%
    02:00 +6°C° 1 mm 1 mps 619 mmHg 98%
    03:00 +6°C° 1 mm 1 mps 619 mmHg 98%
    04:00 +6°C° 1 mm 1 mps 620 mmHg 98%
    05:00 +6°C° 0.8 mm 1 mps 620 mmHg 98%
    06:00 +6°C° 0.8 mm 1 mps 620 mmHg 98%
    07:00 +6°C° 0.8 mm 1 mps 620 mmHg 98%
    08:00 +6°C° 0.8 mm 1 mps 621 mmHg 98%
    09:00 +6°C° 0.8 mm 1 mps 621 mmHg 98%
    10:00 +7°C° 0.8 mm 1 mps 621 mmHg 97%
    11:00 +7°C° 0.2 mm 1 mps 622 mmHg 94%
    12:00 +8°C° 0.2 mm 1 mps 622 mmHg 91%
    13:00 +9°C° 0.2 mm 1 mps 622 mmHg 88%
    14:00 +9°C° 0.1 mm 1 mps 622 mmHg 86%
    15:00 +9°C° 0.1 mm 1 mps 622 mmHg 83%
    16:00 +10°C° 0.1 mm 1 mps 623 mmHg 80%
    17:00 +9°C° 0.2 mm 1 mps 623 mmHg 83%
    18:00 +9°C° 0.2 mm 1 mps 623 mmHg 85%
    19:00 +9°C° 0.2 mm 1 mps 623 mmHg 88%
    20:00 +7°C° 0 mm 1 mps 623 mmHg 89%
    21:00 +6°C° 0 mm 1 mps 623 mmHg 91%
    22:00 +5°C° 0 mm 1 mps 623 mmHg 92%
    23:00 +4°C° 0 mm 2 mps 623 mmHg 90%

    6 June, Saturday

    Time Temperature Precipitation Wind Pressure Humidity
    00:00 +3°C° 0 mm 2 mps 623 mmHg 88%
    01:00 +3°C° 0 mm 2 mps 623 mmHg 86%
    02:00 +4°C° 0 mm 2 mps 624 mmHg 85%
    03:00 +4°C° 0 mm 2 mps 624 mmHg 85%
    04:00 +4°C° 0 mm 2 mps 624 mmHg 84%
    05:00 +5°C° 0 mm 2 mps 625 mmHg 84%
    06:00 +7°C° 0 mm 2 mps 625 mmHg 83%
    07:00 +8°C° 0 mm 2 mps 626 mmHg 83%
    08:00 +9°C° 0 mm 2 mps 627 mmHg 79%
    09:00 +12°C° 0 mm 2 mps 627 mmHg 75%
    10:00 +12°C° 0 mm 3 mps 628 mmHg 71%
    11:00 +13°C° 0.3 mm 3 mps 628 mmHg 72%
    12:00 +14°C° 0.3 mm 2 mps 628 mmHg 72%
    13:00 +15°C° 0.3 mm 2 mps 628 mmHg 73%
    14:00 +14°C° 0.9 mm 2 mps 628 mmHg 78%
    15:00 +13°C° 0.9 mm 2 mps 627 mmHg 83%
    16:00 +12°C° 0.9 mm 2 mps 627 mmHg 88%
    17:00 +12°C° 0.8 mm 2 mps 627 mmHg 91%
    18:00 +11°C° 0.8 mm 1 mps 627 mmHg 93%
    19:00 +11°C° 0.8 mm 1 mps 627 mmHg 96%
    20:00 +10°C° 0.4 mm 1 mps 627 mmHg 96%
    21:00 +9°C° 0.4 mm 1 mps 627 mmHg 97%
    22:00 +9°C° 0.4 mm 1 mps 627 mmHg 97%
    23:00 +9°C° 0.1 mm 1 mps 627 mmHg 97%

    7 June, Sunday

    Time Temperature Precipitation Wind Pressure Humidity
    00:00 +8°C° 0.1 mm 1 mps 627 mmHg 97%
    01:00 +8°C° 0.1 mm 1 mps 626 mmHg 97%
    02:00 +8°C° 1.2 mm 1 mps 626 mmHg 97%
    03:00 +8°C° 1.2 mm 1 mps 627 mmHg 97%
    04:00 +7°C° 1.2 mm 0 mps 627 mmHg 98%
    05:00 +7°C° 1 mm 0 mps 627 mmHg 98%
    06:00 +7°C° 1 mm 0 mps 627 mmHg 98%
    07:00 +8°C° 1 mm 1 mps 627 mmHg 98%
    08:00 +9°C° 1.1 mm 1 mps 628 mmHg 97%
    09:00 +9°C° 1.1 mm 1 mps 628 mmHg 97%
    10:00 +9°C° 1.1 mm 1 mps 628 mmHg 97%
    11:00 +9°C° 0.6 mm 1 mps 629 mmHg 96%
    12:00 +8°C° 0.6 mm 2 mps 629 mmHg 96%
    13:00 +8°C° 0.6 mm 2 mps 629 mmHg 96%
    14:00 +7°C° 0.7 mm 2 mps 629 mmHg 96%
    15:00 +7°C° 0.7 mm 2 mps 629 mmHg 96%
    16:00 +7°C° 0.7 mm 1 mps 628 mmHg 97%
    17:00 +7°C° 1.1 mm 1 mps 628 mmHg 97%
    18:00 +6°C° 1.1 mm 1 mps 628 mmHg 98%
    19:00 +6°C° 1.1 mm 1 mps 628 mmHg 98%
    20:00 +6°C° 1.2 mm 1 mps 628 mmHg 98%
    21:00 +6°C° 1.2 mm 1 mps 629 mmHg 98%
    22:00 +6°C° 1.2 mm 1 mps 629 mmHg 98%
    23:00 +6°C° 1.1 mm 1 mps 629 mmHg 98%

    8 June, Monday

    Time Temperature Precipitation Wind Pressure Humidity
    00:00 +6°C° 1.1 mm 1 mps 629 mmHg 98%
    01:00 +5°C° 1.1 mm 1 mps 628 mmHg 98%
    02:00 +5°C° 1.5 mm 1 mps 628 mmHg 98%
    03:00 +5°C° 1.5 mm 1 mps 628 mmHg 98%
    04:00 +5°C° 1.5 mm 1 mps 628 mmHg 98%
    05:00 +4°C° 1.3 mm 2 mps 628 mmHg 98%
    06:00 +3°C° 1.3 mm 2 mps 628 mmHg 98%
    07:00 +3°C° 1.3 mm 2 mps 628 mmHg 98%
    08:00 +4°C° 1.2 mm 2 mps 628 mmHg 97%
    09:00 +4°C° 1.2 mm 2 mps 629 mmHg 95%
    10:00 +4°C° 1.2 mm 2 mps 629 mmHg 94%
    11:00 +4°C° 1.7 mm 2 mps 629 mmHg 94%
    12:00 +6°C° 1.7 mm 1 mps 629 mmHg 94%
    13:00 +6°C° 1.7 mm 1 mps 629 mmHg 93%
    14:00 +7°C° 0.2 mm 1 mps 629 mmHg 90%
    15:00 +8°C° 0.2 mm 1 mps 629 mmHg 86%
    16:00 +9°C° 0.2 mm 1 mps 630 mmHg 83%
    17:00 +8°C° 0 mm 1 mps 630 mmHg 85%
    18:00 +8°C° 0 mm 1 mps 630 mmHg 87%
    19:00 +7°C° 0 mm 1 mps 630 mmHg 89%
    20:00 +6°C° 0 mm 1 mps 630 mmHg 90%
    21:00 +4°C° 0 mm 1 mps 630 mmHg 90%
    22:00 +3°C° 0 mm 1 mps 630 mmHg 91%
    23:00 +3°C° 0 mm 1 mps 630 mmHg 91%
    Show more